Regional Weather Roundup
Issued by NWS

Home | Current Version | Previous Version | Text Only | Print | Product List | Glossary On
Versions: 1 2 3 4 5 6 7 8 9 10 11 12 13 14 15 16 17 18 19 20 21 22 23 24 25 26 27 28 29 30 31 32 33 34 35 36 37 38 39 40 41 42 43 44 45 46 47 48 49 50
000
ASHW40 PHFO 041243
RWRHI

WEATHER ROUNDUP FOR HAWAII
NATIONAL WEATHER SERVICE HONOLULU HI
200 AM HST TUE AUG 04 2015

THIS IS AN AUTOMATED REPORT THAT HAS NOT BEEN QUALITY CONTROLLED.

NOTE..."FAIR" INDICATES FEW OR NO CLOUDS BELOW 12,000 FEET WITH NO
SIGNIFICANT WEATHER AND/OR OBSTRUCTIONS TO VISIBILITY.

* - THESE SITES REPORT LIMITED FIELDS

HIZ001>004-041300-
KAUAI-NIIHAU-

CITY           SKY/WX    TMP DP  RH WIND       PRES   REMARKS
LIHUE APT      PTCLDY    77  71  82 N12       29.90F
PORT ALLEN*    NOT AVBL
POIPU*           N/A     75 N/A N/A VRB5G13     N/A
PRINCEVILLE*     N/A     73 N/A N/A MISG        N/A
KOKOLE POINT*  NOT AVBL
MOLOAA DAIRY*  NOT AVBL
WAIMEA HTS*      N/A     75  66  73 CALM        N/A
PUU OPAE*        N/A     70  63  78 N2          N/A
PUU LUA*       NOT AVBL
MAKAHA RIDGE*    N/A     70  68  94 NE5G12      N/A
$$

HIZ005>011-041300-
OAHU-

CITY           SKY/WX    TMP DP  RH WIND       PRES   REMARKS
HONOLULU       PTCLDY    76  68  76 NW8       29.87F
KALAELOA       CLEAR     75  65  70 CALM      29.88F
KANEOHE MCB    CLEAR     76  71  85 NW5       29.85F
WHEELER FIELD  FAIR      70  66  88 NW6       29.88F
BELLOWS*         N/A    N/A N/A N/A W3          N/A
KAHUKU*          N/A    N/A N/A N/A SE1         N/A
WHEELER*       NOT AVBL
WAIANAE HARBOR NOT AVBL
DILLINGHAM*      N/A     72  66  83 MISG        N/A
KAHUKU TRN*      N/A     82  79  89 SE2         N/A  HX  93
KAWAILOA*        N/A     70  66  88 NE3         N/A
KII*             N/A     73  72  94 CALM        N/A
MAKUA RANGE*     N/A     75  64  69 E5          N/A
OAHU FOREST NW   N/A     66  64  94 CALM        N/A
SCHOFIELD BRK*   N/A     66  64  94 MISG        N/A
SCHOFIELD S*   NOT AVBL
WAIANAE VLY*     N/A    N/A N/A N/A MISG        N/A
KUAOKALA*        N/A     73  66  78 NE13G20     N/A
HONOULIUULI*   NOT AVBL
MOKUOLOE IS*     N/A    N/A N/A N/A MISG        N/A
PALEHUA*         N/A     68  59  73 NE2         N/A
WAIAWA PHB*    NOT AVBL
$$

HIZ012>013-041300-
MOLOKAI-

CITY           SKY/WX    TMP DP  RH WIND       PRES   REMARKS
MOLOKAI AIRPT  MOCLDY    77  70  79 NE6       29.88F
KALAUPAPA      NOT AVBL
MAKAPULAPAI*     N/A     75  68  78 E3          N/A
MOLOKAI 1*       N/A     75  72  88 N1          N/A
PUU ALII*        N/A     60  60 100 CALM        N/A
$$

HIZ016-041300-
KAHOOLAWE-

CITY           SKY/WX    TMP DP  RH WIND       PRES   REMARKS
KAHOOLAWE*       N/A     72 N/A N/A NE8G14      N/A
HAKIOAWA*        N/A     73  70  91 MISG        N/A
HONOKANAIA*      N/A     78  69  74 N9G18     29.87F
KANELOA*         N/A     75  72  88 N7G17     29.94F
KEALIALALO*      N/A     75  70  83 E7G14     29.86F
LUA MAKIKA*    NOT AVBL
$$

HIZ014>015-041300-
LANAI-

CITY           SKY/WX    TMP DP  RH WIND       PRES   REMARKS
LANAI CITY     CLOUDY    73  69  87 NE9       29.92F
LANAI 1*         N/A     72  70  94 NE12G18     N/A
$$

HIZ017>028-041300-
MAUI-

CITY           SKY/WX    TMP DP  RH WIND       PRES   REMARKS
KAHULUI        PTCLDY    79  72  78 N7        29.86F
KAPALUA-W MAUI NOT AVBL
HANA AIRPORT   CLOUDY    73  73 100 S3        29.89S
HANA*            N/A     73 N/A N/A S3          N/A
HALEAKALA SUMM   N/A     45  43  93 SE2G16      N/A
MAALAEA BAY*   NOT AVBL
HALEAKALA*     NOT AVBL
KAUPO GAP*       N/A     68  63  83 N6G15       N/A
KULA 1*          N/A     55  55 100 NE3         N/A
$$

HIZ023>026-041300-
BIG ISLAND OF HAWAII COAST AND LOWER SLOPES-

CITY           SKY/WX    TMP DP  RH WIND       PRES   REMARKS
KAILUA KONA    CLEAR     80  74  81 SE3       29.83S
HILO           PTCLDY    73  71  93 W5        29.86F
HONOKAA*       NOT AVBL
KAWAIHAE MWT*    N/A     81 N/A N/A NE1         N/A
KAWAIHAE*        N/A     79 N/A N/A NE3         N/A
SOUTH POINT*     N/A     73 N/A N/A NW1         N/A
UPOLU AIRPORT*   N/A    N/A N/A N/A E10         N/A
KAMUELA*       MOSUNNY   66  66 100 NE8       29.97S
HAKALAU*         N/A     50  49  97 SW3         N/A
KALOKO-HONOKO*   N/A     75  73  94 CALM      29.82S
PALI 2*          N/A     68  61  77 N12         N/A
KEALAKOMO*       N/A     72  57  60 N20G31      N/A
KAUPULEHU*       N/A     75  70  83 SE3         N/A
KAPAPALA*        N/A     68  67  97 N3          N/A
LOWER KAHUKU*    N/A     64  64 100 N2          N/A
PUHE CS*         N/A     81  73  78 NE2         N/A
PUHO CS*         N/A     77  71  81 NE3         N/A
PTA KEAMUKU*     N/A     64  61  88 CALM        N/A
WAIKOLOA*        N/A     75  66  73 E10G18      N/A
$$

HIZ027>028-041300-
BIG ISLAND OF HAWAII INTERIOR AND SUMMMITS-

CITY           SKY/WX    TMP DP  RH WIND       PRES   REMARKS
BRADSHAW FIELD CLOUDY    55  54  95 SE5       30.22F
MK VISITOR CEN   N/A      0   0 100 MISG        N/A
MAUNA KEA*       N/A     39  12  33 E9          N/A
MAUNA LOA*       N/A     45  39  81 MISG        N/A
MAUNA LOA 1*   NOT AVBL
PTA KIPUKA*      N/A     57  57 100 E3          N/A
PTA RANGE 17*    N/A     59  55  88 E7          N/A
PTA WEST*        N/A     63  59  88 SW3G12      N/A
NENE CABIN*      N/A     54  54 100 N2          N/A
AHUMOA*          N/A     57  54  90 SE6G12      N/A
PTA PORTABLE*  NOT AVBL
PUU MALI*        N/A     57  55  94 E3          N/A
$$

HIC003-041300-
NORTHWEST ISLANDS-

CITY           SKY/WX    TMP DP  RH WIND       PRES   REMARKS
MIDWAY ISLAND  MOCLDY    81  77  89 S8        30.00F
MIDWAY NOS*    NOT AVBL
FRENCH FRIGATE NOT AVBL
$$

PHZ110>124-180-041300-
BUOY REPORTS

STATION/POSITION TIME  TEMP    WIND        PRES    WAVE   SWELL
                       AIR SEA DIR/SP/G            HT/PER HT/DIR
                 (UTC) (F)     (DEG/KT/KT) (MB)    (FT/S) (FT/D)
BUOY 51001       NOT AVBL
BUOY 51101       1200   80 81   60/ 17/ 21 1014.5F   7/14   5/120
BUOY 51100       NOT AVBL
BUOY 51002       1200   81 82   60/  8/ 10 1010.2F   7/13   7/110
BUOY 51003       1200   81 82   50/ 14/ 16 1011.6F   6/13   5
BUOY 51004       1131   80 82  360/ 14/ 16 1008.0F   7/12   7/ 90
BARBERS PT BUOY  NOT AVBL
WAIMEA BAY BUOY  1200      81                N/A     4/ 7   2/ 10
KAILUA BAY BUOY  1200      80                N/A     6/ 8   2/ 90
LANAI BUOY       NOT AVBL
BARBERS PT 2     1200      82                N/A     3/11   2/170
PAUWELA MAUI     1200      80                N/A     6/13   3/100
HILO             NOT AVBL
KANEOHE BAY BUOY 1200      81                N/A     5/ 8   2/ 80
HANALEI KAUAI    1200      81                N/A     6/13   3/ 90
KAHULUI HARBOR   1200   79 80  320/  8/  9 1011.0F
HONOLULU HARBOR  1200   78 80  350/  4/  5 1011.4F
KILO NALU        NOT AVBL
HILO HARBOR      1200   74 79  260/  5/  6 1010.5F
MOKUOLOE         1200   78 84  280/  3/  5 1011.8S
NAWILIWILI       1200   75 82  260/  5/  6 1012.2F
WHOTS BUOY       NOT AVBL
BUOY 51028       NOT AVBL
$$

......................KEY........................................
  SKY/WX - SKY CONDITIONS/PRESENT WEATHER
  TMP    - TEMPERATURE IN FAHRENHEIT
  DWPT   - DEWPOINT IN FAHRENHEIT
  RH     - RELATIVE HUMIDITY IN PERCENT
  WIND   - DIRECTION AND SPEED /MPH FOR ISLANDS...KTS FOR BUOYS/
  PRES   - MEAN SEA LEVEL PRESSURE IN INCHES OF HG
  VSB    - VISIBILITY IN MILES
  HX     - HEAT INDEX
  WCI    - WIND CHILL INDEX
  VRB    - VARIABLE WIND DIRECTION
  N/A    - NOT AVAILABLE


USA.gov is the U.S. government's official web portal to all federal, state and local government web resources and services.